星链-4489 (STARLINK-4489 )

导读 | 豆包AI

STARLINK-4489是美国SpaceX星链星座的卫星,于2022年8月19日发射升空,是星链星座组网建设的组成部分之一,运行于近地轨道。星链计划旨在打造全球覆盖、大容量、低时延的天基互联网系统,可为民用场景提供高速宽带服务,同时也被曝具备军事应用潜力,能支撑导航增强、洲际导弹拦截等军事任务。截至2025年,SpaceX已发射超9000颗星链卫星,服务覆盖全球155个国家和地区。

基本信息
目录编号:
53542
目录名称:
STARLINK-4489
国际标识:
2022-101R
轨道中心:
EARTH
卫星名称:
星链-4489
卫星全名:
星链-4489 (STARLINK-4489 )
卫星状态:
在轨 (已飞行1304 天)
发射日期:
2022-08-19 UTC
国别 :
美国 (US)
星等 :
--
轨道信息
数据来源 国际轨道数据 AOE轨道数据
星历时间 2026-03-15T06:17:29+0800
9小时前
查看轨道信息
2026-03-08T22:00:00+0800
6天前
查看轨道信息
半长轴 6917.899km 6917.836km
偏心率 0.000146 0.0001203
轨道倾角 53.217° 53.218°
近地点辐角 81.864° 90.102°
升交点赤经 40.598° 69.091°
平近点角 278.252° 343.890°
近地点 538.751km 538.866km
远地点 540.773km 540.532km
周期 95.438分钟 95.437分钟
每日圈数 15.088341 15.088546
详细信息
固有亮度:
5
最大亮度:
2.5
卫星平台:
Starlink v1.5
覆盖范围:
全球
运营商:
太空探索技术公司
运营商所在国:
美国
制造商(研发单位):
太空探索技术公司
制造商所在国:
美国
使用方式:
暂无
卫星简介
星链(Starlink)计划是由太空探索技术公司(SpaceX)提出的一个巨型低轨卫星互联网星座项目,计划在2019年至2024年间在太空搭建由约1.2万颗卫星组成的“星链”网络,其中1584颗将部署在地球上空550千米处的近地轨道,并从2020年开始工作。该卫星仍在工作。
2D轨道图
3D轨道图
轨道高度分析图
轨道倾角分析图
轨道综合分析图
查看轨道综合分析图